Windsor Locks, CT

2:40 PM EDT on April 23, 2017 (GMT -0400)
Bradley International

Weather History for KBDL - February, 2013

Change the Weather History Date:

Thursday, February 14, 2013

  Actual Average Record
Temperature  
Mean Temperature 32 °F 30 °F  
Max Temperature 42 °F 38 °F 55 °F (1949)
Min Temperature 21 °F 21 °F -12 °F (2016)
Degree Days  
Heating Degree Days 33 36  
Month to date heating degree days 536 516  
Since 1 July heating degree days 3694 3966  
Cooling Degree Days 0 0  
Month to date cooling degree days 0 0  
Year to date cooling degree days 0 0  
Moisture  
Dew Point 22 °F    
Average Humidity 68    
Maximum Humidity 96    
Minimum Humidity 39    
Precipitation  
Precipitation 0.02 in 0.10 in 1.35 in (1950)
Month to date precipitation 2.26 1.42  
Year to date precipitation 4.01 4.65  
Snow  
Snow 0.10 in 0.50 in 16.00 in (1914)
Month to date snowfall 22.9 6.1  
Since 1 July snowfall 44.6 27.8  
Snow Depth 15.00 in    
Sea Level Pressure  
Sea Level Pressure 29.87 in    
Wind  
Wind Speed 3 mph (SSW)    
Max Wind Speed 12 mph    
Max Gust Speed 13 mph    
Visibility 9 miles    
Events Snow    
T = Trace of Precipitation, MM = Missing Value Source: NWS Daily Summary

Daily Weather History Graph

Daily Weather History Graph

Search for Another Location

Airport or City:

Trip Planner

Search our weather history database for the weather conditions in past years. The results will help you decide how hot, cold, wet, or windy it might be!

Date:

Astronomy

Feb. 14, 2013 Rise Set
Actual Time 6:47 AM EST 5:22 PM EST
Civil Twilight 6:18 AM EST 5:51 PM EST
Nautical Twilight 5:46 AM EST 6:24 PM EST
Astronomical Twilight 5:13 AM EST 6:56 PM EST
Moon 8:42 AM EST (2/14) 10:28 PM EST (2/14)
Length of Visible Light 11h 32m
Length of Day
10h 35m
Waxing Crescent, 21% of the Moon is Illuminated
Feb 14
Waxing Crescent
Feb 17
First Quarter
Feb 25
Full
Mar 4
Last Quarter
Mar 11
New

Hourly Weather History & Observations

Time (EST) Temp. Windchill Dew Point Humidity Pressure Visibility Wind Dir Wind Speed Gust Speed Precip Events Conditions
12:35 AM 30.2 °F 26.7 °F 28.4 °F 93% 29.73 in 1.5 mi North 3.5 mph - 0.02 in Snow Light Snow
12:51 AM 30.9 °F 27.5 °F 28.9 °F 92% 29.73 in 1.5 mi North 3.5 mph - 0.02 in Snow Light Snow
1:47 AM 30.2 °F - 28.4 °F 93% 29.72 in 8.0 mi Calm Calm - 0.00 in   Overcast
1:51 AM 30.2 °F - 28.4 °F 93% 29.72 in 9.0 mi Calm Calm - N/A   Overcast
2:51 AM 28.0 °F 24.2 °F 26.1 °F 92% 29.75 in 8.0 mi West 3.5 mph - N/A   Mostly Cloudy
3:51 AM 28.4 °F - 26.6 °F 93% 29.76 in 9.0 mi Calm Calm - N/A   Mostly Cloudy
4:51 AM 27.0 °F 23.0 °F 25.0 °F 92% 29.78 in 10.0 mi WNW 3.5 mph - N/A   Scattered Clouds
5:51 AM 23.0 °F - 21.0 °F 92% 29.80 in 10.0 mi Calm Calm - N/A   Partly Cloudy
6:51 AM 24.1 °F 18.2 °F 19.0 °F 81% 29.82 in 10.0 mi North 4.6 mph - N/A   Partly Cloudy
7:51 AM 26.1 °F - 23.0 °F 88% 29.87 in 8.0 mi Calm Calm - N/A   Partly Cloudy
8:51 AM 30.0 °F - 21.9 °F 72% 29.90 in 10.0 mi Calm Calm - N/A   Partly Cloudy
9:51 AM 35.1 °F - 21.9 °F 59% 29.91 in 10.0 mi Calm Calm - N/A   Clear
10:51 AM 37.0 °F - 19.0 °F 48% 29.92 in 10.0 mi Calm Calm - N/A   Scattered Clouds
11:51 AM 39.9 °F - 17.1 °F 40% 29.91 in 10.0 mi Calm Calm - N/A   Scattered Clouds
12:51 PM 39.9 °F - 18.0 °F 41% 29.90 in 10.0 mi Calm Calm - N/A   Partly Cloudy
1:51 PM 39.9 °F 35.1 °F 19.0 °F 43% 29.89 in 10.0 mi SE 6.9 mph - N/A   Partly Cloudy
2:51 PM 39.9 °F 33.4 °F 21.9 °F 49% 29.90 in 10.0 mi SSE 10.4 mph - N/A   Clear
3:51 PM 42.1 °F 38.4 °F 21.0 °F 43% 29.91 in 10.0 mi Variable 5.8 mph - N/A   Partly Cloudy
4:51 PM 42.1 °F 38.4 °F 19.0 °F 40% 29.92 in 10.0 mi SW 5.8 mph - N/A   Partly Cloudy
5:51 PM 39.9 °F 35.1 °F 19.9 °F 45% 29.95 in 10.0 mi WSW 6.9 mph - N/A   Mostly Cloudy
6:51 PM 37.9 °F 35.5 °F 19.0 °F 47% 29.96 in 10.0 mi SSW 3.5 mph - N/A   Scattered Clouds
7:51 PM 35.1 °F 29.3 °F 21.9 °F 59% 29.97 in 10.0 mi South 6.9 mph - N/A   Scattered Clouds
8:51 PM 32.0 °F 27.5 °F 21.9 °F 66% 29.97 in 10.0 mi South 4.6 mph - N/A   Scattered Clouds
9:51 PM 33.1 °F 30.0 °F 23.0 °F 66% 29.98 in 10.0 mi South 3.5 mph - N/A   Overcast
10:51 PM 33.1 °F 26.9 °F 24.1 °F 70% 29.98 in 10.0 mi South 6.9 mph - N/A   Mostly Cloudy
11:51 PM 32.0 °F 26.4 °F 24.1 °F 73% 29.98 in 10.0 mi SSE 5.8 mph - N/A   Mostly Cloudy